QPF
0.00 0.00 0.01 0.01 0.01 0.02 0.03 0.02 0.01 0.01 0.01 0.01 0.01 0.01 0.01 0.01 0.01 0.00 0.00 0.01 0.00 0.00 0.01 0.01 0.00 0.00 0.00 0.00 0.00 0.00 0.00 0.00 0.00 0.00 0.00 0.00 0.01 0.01 0.00 0.00 0.00 0.00 0.01
0.00 0.00 0.01 0.01 0.02 0.03 0.03 0.02 0.01 0.01 0.01 0.00 0.00 0.00 0.00 0.01 0.01 0.00 0.00 0.00 0.00 0.00 0.00 0.00 0.00 0.00 0.00 0.00 0.00 0.00 0.00 0.00 0.00 0.00 0.00 0.00 0.00 0.00 0.00 0.00 0.00 0.00 0.00
0.00 0.00 0.01 0.01 0.02 0.02 0.03 0.02 0.01 0.00 0.00 0.00 0.00 0.00 0.00 0.00 0.00 0.00 0.00 0.00 0.00 0.00 0.00 0.00 0.00 0.00 0.00 0.00 0.00 0.00 0.00 0.00 0.00 0.00 0.00 0.00 0.00 0.00 0.00 0.00 0.00 0.00 0.00
0.00 0.00 0.00 0.01 0.01 0.02 0.02 0.02 0.01 0.01 0.00 0.00 0.00 0.00 0.00 0.00 0.00 0.00 0.00 0.00 0.00 0.00 0.00 0.00 0.00 0.00 0.00 0.00 0.00 0.00 0.00 0.00 0.00 0.00 0.00 0.00 0.00 0.00 0.00 0.00 0.00 0.00 0.00
0.00 0.00 0.00 0.01 0.01 0.02 0.02 0.02 0.01 0.01 0.00 0.00 0.00 0.00 0.00 0.00 0.00 0.00 0.00 0.00 0.00 0.00 0.00 0.00 0.00 0.00 0.00 0.00 0.00 0.00 0.00 0.00 0.00 0.00 0.00 0.00 0.00 0.00 0.00 0.00 0.00 0.00 0.00
0.00 0.00 0.00 0.01 0.01 0.01 0.01 0.02 0.02 0.01 0.00 0.00 0.00 0.00 0.00 0.00 0.00 0.00 0.00 0.00 0.00 0.00 0.00 0.00 0.00 0.00 0.00 0.00 0.00 0.00 0.00 0.00 0.00 0.00 0.00 0.00 0.00 0.00 0.00 0.00 0.00 0.00 0.00
0.00 0.00 0.00 0.01 0.01 0.01 0.01 0.01 0.02 0.01 0.00 0.00 0.00 0.00 0.00 0.00 0.00 0.00 0.00 0.00 0.00 0.00 0.00 0.00 0.00 0.00 0.00 0.00 0.00 0.00 0.00 0.00 0.00 0.00 0.00 0.00 0.00 0.00 0.00 0.00 0.00 0.00 0.00
0.00 0.00 0.00 0.01 0.01 0.01 0.01 0.01 0.02 0.01 0.00 0.00 0.00 0.00 0.00 0.00 0.00 0.00 0.00 0.00 0.00 0.00 0.00 0.00 0.00 0.00 0.00 0.00 0.00 0.00 0.00 0.00 0.00 0.00 0.00 0.00 0.00 0.00 0.00 0.00 0.00 0.00 0.00
0.00 0.00 0.00 0.01 0.00 0.00 0.00 0.01 0.02 0.01 0.01 0.00 0.00 0.00 0.00 0.00 0.00 0.00 0.00 0.00 0.00 0.00 0.00 0.00 0.00 0.00 0.00 0.00 0.00 0.00 0.00 0.00 0.00 0.00 0.00 0.00 0.00 0.00 0.00 0.00 0.00 0.00 0.00
0.00 0.00 0.00 0.00 0.00 0.00 0.00 0.00 0.01 0.01 0.00 0.00 0.00 0.00 0.00 0.00 0.00 0.00 0.00 0.00 0.00 0.00 0.00 0.00 0.00 0.00 0.00 0.00 0.00 0.00 0.00 0.00 0.00 0.00 0.00 0.00 0.00 0.00 0.00 0.00 0.00 0.00 0.00
0.00 0.00 0.00 0.00 0.00 0.00 0.00 0.00 0.00 0.00 0.00 0.00 0.00 0.00 0.00 0.00 0.00 0.00 0.00 0.00 0.00 0.00 0.00 0.00 0.00 0.00 0.00 0.00 0.00 0.00 0.00 0.00 0.00 0.00 0.00 0.00 0.00 0.00 0.00 0.00 0.00 0.00 0.00
0.00 0.00 0.00 0.00 0.00 0.00 0.00 0.00 0.00 0.00 0.00 0.00 0.00 0.00 0.00 0.00 0.00 0.00 0.00 0.00 0.00 0.00 0.00 0.00 0.00 0.00 0.00 0.00 0.00 0.00 0.00 0.00 0.00 0.00 0.00 0.00 0.00 0.00 0.00 0.00 0.00 0.00 0.00
0.00 0.00 0.00 0.00 0.00 0.00 0.00 0.00 0.00 0.00 0.00 0.00 0.00 0.00 0.00 0.00 0.00 0.00 0.00 0.00 0.00 0.00 0.00 0.00 0.00 0.00 0.00 0.00 0.00 0.00 0.00 0.00 0.00 0.00 0.00 0.00 0.00 0.00 0.00 0.00 0.00 0.00 0.00
0.00 0.00 0.00 0.00 0.00 0.00 0.00 0.00 0.00 0.00 0.00 0.00 0.00 0.00 0.00 0.00 0.00 0.00 0.00 0.00 0.00 0.00 0.00 0.00 0.00 0.00 0.00 0.00 0.00 0.00 0.00 0.00 0.00 0.00 0.00 0.00 0.00 0.00 0.00 0.00 0.00 0.00 0.00
0.00 0.00 0.00 0.00 0.00 0.00 0.00 0.00 0.00 0.00 0.00 0.00 0.00 0.00 0.00 0.00 0.00 0.00 0.00 0.00 0.00 0.00 0.00 0.00 0.00 0.00 0.00 0.00 0.00 0.00 0.00 0.00 0.00 0.00 0.00 0.00 0.00 0.00 0.00 0.00 0.00 0.00 0.00
0.00 0.00 0.00 0.00 0.00 0.00 0.00 0.00 0.00 0.00 0.00 0.00 0.00 0.00 0.00 0.00 0.00 0.00 0.00 0.00 0.00 0.00 0.00 0.00 0.00 0.00 0.00 0.00 0.00 0.00 0.00 0.00 0.00 0.00 0.00 0.00 0.00 0.00 0.00 0.00 0.00 0.00 0.00
0.00 0.00 0.00 0.00 0.00 0.00 0.00 0.00 0.00 0.00 0.00 0.00 0.00 0.00 0.00 0.00 0.00 0.00 0.00 0.00 0.00 0.00 0.00 0.00 0.00 0.00 0.00 0.00 0.00 0.00 0.00 0.00 0.00 0.00 0.00 0.00 0.00 0.00 0.00 0.00 0.00 0.00 0.00
0.00 0.00 0.00 0.00 0.00 0.00 0.00 0.00 0.00 0.00 0.01 0.01 0.00 0.00 0.00 0.00 0.00 0.00 0.00 0.00 0.00 0.00 0.00 0.00 0.00 0.00 0.00 0.00 0.00 0.00 0.00 0.00 0.00 0.00 0.00 0.00 0.00 0.00 0.00 0.00 0.00 0.00 0.00
0.00 0.00 0.00 0.00 0.00 0.00 0.00 0.00 0.00 0.00 0.01 0.01 0.01 0.00 0.00 0.00 0.00 0.00 0.00 0.00 0.00 0.00 0.00 0.00 0.00 0.00 0.00 0.00 0.00 0.00 0.00 0.00 0.00 0.00 0.00 0.00 0.00 0.00 0.00 0.00 0.00 0.00 0.00
0.00 0.00 0.00 0.00 0.00 0.00 0.00 0.00 0.00 0.00 0.01 0.00 0.00 0.00 0.00 0.00 0.00 0.00 0.00 0.00 0.00 0.00 0.00 0.00 0.00 0.00 0.00 0.00 0.00 0.00 0.00 0.00 0.00 0.00 0.00 0.00 0.00 0.00 0.00 0.00 0.00 0.00 0.00
0.00 0.00 0.00 0.00 0.00 0.00 0.00 0.00 0.00 0.00 0.00 0.00 0.00 0.00 0.00 0.00 0.00 0.00 0.00 0.00 0.00 0.00 0.00 0.00 0.00 0.00 0.00 0.00 0.00 0.00 0.00 0.00 0.00 0.00 0.00 0.00 0.00 0.00 0.00 0.00 0.00 0.00 0.00
0.00 0.00 0.00 0.00 0.00 0.00 0.00 0.00 0.00 0.00 0.00 0.00 0.00 0.00 0.00 0.00 0.00 0.00 0.00 0.00 0.00 0.00 0.00 0.00 0.00 0.00 0.00 0.00 0.00 0.00 0.00 0.00 0.00 0.00 0.00 0.00 0.00 0.00 0.00 0.00 0.00 0.00 0.00
0.00 0.00 0.00 0.00 0.00 0.00 0.00 0.00 0.00 0.00 0.00 0.00 0.00 0.00 0.00 0.00 0.00 0.00 0.00 0.00 0.00 0.00 0.00 0.00 0.00 0.00 0.00 0.00 0.00 0.00 0.00 0.00 0.00 0.00 0.00 0.00 0.00 0.00 0.00 0.00 0.00 0.00 0.00
0.00 0.00 0.00 0.00 0.00 0.00 0.00 0.00 0.00 0.00 0.00 0.00 0.00 0.00 0.00 0.00 0.00 0.00 0.00 0.01 0.01 0.00 0.00 0.00 0.00 0.00 0.00 0.00 0.00 0.00 0.00 0.00 0.00 0.00 0.00 0.00 0.00 0.00 0.00 0.00 0.00 0.00 0.00
0.00 0.00 0.00 0.00 0.00 0.00 0.00 0.00 0.00 0.00 0.00 0.00 0.00 0.00 0.00 0.00 0.00 0.01 0.01 0.01 0.01 0.01 0.01 0.01 0.01 0.01 0.01 0.01 0.01 0.00 0.00 0.00 0.00 0.00 0.00 0.00 0.00 0.00 0.00 0.00 0.00 0.00 0.00
0.00 0.00 0.00 0.00 0.00 0.00 0.00 0.00 0.00 0.00 0.00 0.00 0.00 0.00 0.00 0.00 0.00 0.00 0.01 0.01 0.01 0.01 0.01 0.01 0.01 0.01 0.01 0.01 0.01 0.00 0.00 0.00 0.00 0.00 0.00 0.00 0.00 0.00 0.00 0.00 0.00 0.00 0.00
MSLP
1018.12 1017.87 1017.77 1017.82 1017.99 1018.25 1018.53 1018.78 1018.98 1019.10 1019.15 1019.15 1019.14 1019.13 1019.16 1019.21 1019.28 1019.35 1019.41 1019.42 1019.40 1019.36 1019.29 1019.23 1019.19 1019.18 1019.20 1019.23 1019.26 1019.28 1019.27 1019.24 1019.17 1019.07 1018.96 1018.84 1018.72 1018.60 1018.48 1018.36 1018.25 1018.13 1018.02
1017.87 1017.69 1017.64 1017.73 1017.93 1018.22 1018.52 1018.81 1019.04 1019.20 1019.30 1019.36 1019.40 1019.45 1019.53 1019.62 1019.73 1019.83 1019.89 1019.92 1019.90 1019.85 1019.79 1019.73 1019.68 1019.66 1019.65 1019.66 1019.67 1019.67 1019.65 1019.60 1019.53 1019.44 1019.33 1019.22 1019.10 1018.98 1018.87 1018.75 1018.64 1018.53 1018.43
1017.59 1017.48 1017.48 1017.61 1017.86 1018.18 1018.54 1018.87 1019.15 1019.37 1019.52 1019.63 1019.72 1019.82 1019.93 1020.04 1020.16 1020.25 1020.30 1020.32 1020.29 1020.23 1020.15 1020.08 1020.03 1020.00 1019.99 1019.99 1019.99 1019.98 1019.96 1019.91 1019.85 1019.77 1019.68 1019.58 1019.47 1019.35 1019.23 1019.10 1018.99 1018.88 1018.80
1017.33 1017.28 1017.35 1017.53 1017.83 1018.20 1018.59 1018.97 1019.30 1019.57 1019.77 1019.93 1020.06 1020.18 1020.30 1020.41 1020.51 1020.58 1020.60 1020.59 1020.53 1020.46 1020.38 1020.30 1020.25 1020.22 1020.22 1020.22 1020.23 1020.23 1020.22 1020.20 1020.16 1020.10 1020.03 1019.93 1019.82 1019.69 1019.55 1019.41 1019.28 1019.17 1019.07
1017.14 1017.17 1017.29 1017.53 1017.87 1018.27 1018.70 1019.11 1019.47 1019.77 1020.01 1020.19 1020.34 1020.47 1020.58 1020.68 1020.75 1020.79 1020.78 1020.74 1020.66 1020.58 1020.50 1020.43 1020.39 1020.37 1020.38 1020.40 1020.43 1020.46 1020.48 1020.49 1020.47 1020.44 1020.37 1020.28 1020.15 1020.00 1019.83 1019.66 1019.49 1019.36 1019.25
1017.07 1017.16 1017.34 1017.61 1017.98 1018.40 1018.84 1019.26 1019.62 1019.93 1020.17 1020.37 1020.52 1020.65 1020.76 1020.84 1020.89 1020.90 1020.88 1020.82 1020.74 1020.65 1020.57 1020.52 1020.49 1020.50 1020.53 1020.57 1020.63 1020.69 1020.74 1020.78 1020.79 1020.78 1020.72 1020.61 1020.46 1020.27 1020.05 1019.83 1019.63 1019.47 1019.34
1017.12 1017.26 1017.47 1017.77 1018.14 1018.56 1018.98 1019.37 1019.71 1020.00 1020.23 1020.42 1020.58 1020.72 1020.83 1020.92 1020.97 1020.98 1020.95 1020.89 1020.81 1020.73 1020.67 1020.63 1020.62 1020.64 1020.69 1020.77 1020.85 1020.93 1021.01 1021.07 1021.11 1021.10 1021.03 1020.90 1020.72 1020.49 1020.22 1019.96 1019.72 1019.52 1019.38
1017.27 1017.43 1017.66 1017.96 1018.32 1018.70 1019.08 1019.42 1019.73 1019.98 1020.19 1020.38 1020.54 1020.70 1020.84 1020.95 1021.02 1021.06 1021.05 1021.01 1020.94 1020.88 1020.83 1020.80 1020.81 1020.84 1020.90 1020.99 1021.08 1021.18 1021.28 1021.35 1021.39 1021.37 1021.29 1021.14 1020.92 1020.65 1020.34 1020.04 1019.77 1019.56 1019.41
1017.44 1017.61 1017.85 1018.15 1018.48 1018.81 1019.13 1019.42 1019.66 1019.88 1020.07 1020.26 1020.45 1020.64 1020.82 1020.99 1021.11 1021.19 1021.22 1021.20 1021.16 1021.11 1021.07 1021.04 1021.05 1021.09 1021.15 1021.23 1021.32 1021.42 1021.51 1021.58 1021.61 1021.58 1021.48 1021.30 1021.05 1020.75 1020.42 1020.10 1019.82 1019.61 1019.47
1017.57 1017.75 1017.99 1018.28 1018.58 1018.87 1019.14 1019.37 1019.56 1019.74 1019.92 1020.13 1020.35 1020.60 1020.84 1021.07 1021.25 1021.38 1021.45 1021.46 1021.44 1021.39 1021.35 1021.33 1021.32 1021.35 1021.40 1021.47 1021.55 1021.63 1021.70 1021.75 1021.75 1021.70 1021.58 1021.39 1021.13 1020.82 1020.48 1020.17 1019.90 1019.70 1019.59
1017.59 1017.79 1018.05 1018.33 1018.62 1018.88 1019.10 1019.29 1019.45 1019.62 1019.80 1020.02 1020.29 1020.59 1020.90 1021.18 1021.42 1021.60 1021.70 1021.74 1021.72 1021.68 1021.64 1021.60 1021.59 1021.60 1021.64 1021.68 1021.74 1021.80 1021.84 1021.85 1021.83 1021.75 1021.61 1021.41 1021.15 1020.85 1020.54 1020.26 1020.02 1019.86 1019.77
1017.49 1017.72 1018.00 1018.30 1018.59 1018.85 1019.05 1019.22 1019.37 1019.52 1019.72 1019.97 1020.27 1020.62 1020.98 1021.31 1021.59 1021.80 1021.92 1021.97 1021.96 1021.92 1021.87 1021.84 1021.82 1021.82 1021.85 1021.88 1021.91 1021.94 1021.94 1021.92 1021.86 1021.76 1021.61 1021.40 1021.16 1020.89 1020.62 1020.38 1020.18 1020.06 1020.00
1017.26 1017.53 1017.86 1018.19 1018.51 1018.77 1018.98 1019.15 1019.30 1019.46 1019.67 1019.94 1020.28 1020.65 1021.03 1021.39 1021.69 1021.91 1022.04 1022.10 1022.10 1022.07 1022.03 1022.01 1022.00 1022.01 1022.04 1022.06 1022.08 1022.08 1022.05 1021.99 1021.90 1021.76 1021.60 1021.40 1021.18 1020.95 1020.73 1020.54 1020.40 1020.31 1020.27
1016.93 1017.26 1017.63 1018.01 1018.36 1018.66 1018.89 1019.07 1019.24 1019.41 1019.63 1019.91 1020.25 1020.63 1021.02 1021.37 1021.67 1021.90 1022.04 1022.10 1022.13 1022.12 1022.12 1022.12 1022.15 1022.19 1022.23 1022.26 1022.27 1022.25 1022.19 1022.09 1021.96 1021.80 1021.62 1021.43 1021.24 1021.05 1020.89 1020.75 1020.65 1020.58 1020.56
1016.54 1016.91 1017.34 1017.76 1018.15 1018.48 1018.74 1018.95 1019.13 1019.32 1019.55 1019.83 1020.16 1020.52 1020.88 1021.23 1021.52 1021.74 1021.89 1021.99 1022.05 1022.09 1022.14 1022.21 1022.29 1022.38 1022.45 1022.50 1022.51 1022.48 1022.39 1022.26 1022.10 1021.91 1021.72 1021.54 1021.37 1021.22 1021.10 1021.00 1020.93 1020.88 1020.85
1016.11 1016.52 1016.98 1017.43 1017.85 1018.21 1018.50 1018.74 1018.95 1019.15 1019.38 1019.65 1019.95 1020.28 1020.62 1020.94 1021.22 1021.46 1021.64 1021.78 1021.90 1022.02 1022.15 1022.30 1022.45 1022.60 1022.72 1022.79 1022.81 1022.76 1022.65 1022.49 1022.30 1022.10 1021.90 1021.72 1021.57 1021.45 1021.37 1021.30 1021.25 1021.20 1021.14
1015.68 1016.10 1016.55 1017.01 1017.44 1017.82 1018.15 1018.42 1018.65 1018.87 1019.10 1019.36 1019.64 1019.94 1020.26 1020.56 1020.84 1021.10 1021.33 1021.54 1021.75 1021.96 1022.18 1022.41 1022.64 1022.84 1023.00 1023.10 1023.12 1023.07 1022.95 1022.77 1022.56 1022.34 1022.14 1021.97 1021.83 1021.74 1021.68 1021.63 1021.59 1021.53 1021.45
1015.25 1015.63 1016.05 1016.50 1016.93 1017.32 1017.67 1017.98 1018.24 1018.49 1018.73 1018.98 1019.25 1019.53 1019.83 1020.13 1020.43 1020.73 1021.02 1021.31 1021.61 1021.92 1022.23 1022.54 1022.83 1023.08 1023.27 1023.38 1023.42 1023.36 1023.23 1023.05 1022.83 1022.61 1022.42 1022.25 1022.13 1022.06 1022.01 1021.98 1021.93 1021.86 1021.75
1014.80 1015.13 1015.50 1015.90 1016.31 1016.72 1017.10 1017.44 1017.75 1018.04 1018.30 1018.56 1018.83 1019.10 1019.39 1019.70 1020.03 1020.38 1020.74 1021.12 1021.51 1021.90 1022.29 1022.65 1022.98 1023.26 1023.46 1023.59 1023.62 1023.57 1023.45 1023.28 1023.08 1022.88 1022.69 1022.55 1022.44 1022.38 1022.34 1022.30 1022.26 1022.18 1022.05
1014.36 1014.60 1014.90 1015.25 1015.64 1016.05 1016.46 1016.86 1017.22 1017.56 1017.86 1018.14 1018.41 1018.69 1018.98 1019.31 1019.67 1020.07 1020.49 1020.94 1021.40 1021.86 1022.29 1022.69 1023.04 1023.32 1023.52 1023.65 1023.69 1023.66 1023.57 1023.43 1023.26 1023.10 1022.94 1022.82 1022.72 1022.66 1022.62 1022.59 1022.54 1022.45 1022.31
1013.93 1014.08 1014.30 1014.60 1014.96 1015.38 1015.82 1016.27 1016.70 1017.09 1017.43 1017.74 1018.03 1018.31 1018.61 1018.95 1019.34 1019.77 1020.24 1020.74 1021.25 1021.74 1022.19 1022.60 1022.94 1023.21 1023.40 1023.53 1023.59 1023.60 1023.55 1023.47 1023.37 1023.25 1023.14 1023.04 1022.96 1022.90 1022.85 1022.80 1022.74 1022.64 1022.50
1013.54 1013.61 1013.75 1013.99 1014.33 1014.75 1015.22 1015.72 1016.21 1016.65 1017.04 1017.37 1017.66 1017.95 1018.25 1018.59 1018.98 1019.43 1019.93 1020.46 1020.98 1021.48 1021.93 1022.32 1022.64 1022.90 1023.09 1023.23 1023.33 1023.39 1023.42 1023.42 1023.39 1023.34 1023.28 1023.21 1023.14 1023.06 1023.00 1022.92 1022.84 1022.73 1022.59
1013.24 1013.22 1013.29 1013.48 1013.78 1014.20 1014.70 1015.23 1015.76 1016.24 1016.65 1016.99 1017.29 1017.56 1017.84 1018.17 1018.55 1019.00 1019.50 1020.03 1020.55 1021.04 1021.48 1021.85 1022.15 1022.40 1022.60 1022.77 1022.92 1023.06 1023.18 1023.28 1023.34 1023.37 1023.36 1023.32 1023.24 1023.15 1023.05 1022.94 1022.82 1022.70 1022.56
1013.04 1012.95 1012.95 1013.08 1013.35 1013.74 1014.24 1014.78 1015.32 1015.82 1016.23 1016.57 1016.84 1017.09 1017.34 1017.64 1018.00 1018.43 1018.92 1019.43 1019.94 1020.42 1020.84 1021.19 1021.49 1021.74 1021.97 1022.19 1022.42 1022.65 1022.87 1023.07 1023.23 1023.34 1023.38 1023.35 1023.27 1023.15 1023.01 1022.85 1022.70 1022.55 1022.40
1012.94 1012.79 1012.72 1012.78 1013.00 1013.36 1013.83 1014.35 1014.88 1015.35 1015.75 1016.05 1016.29 1016.49 1016.71 1016.97 1017.30 1017.71 1018.18 1018.68 1019.18 1019.64 1020.05 1020.41 1020.71 1020.98 1021.25 1021.54 1021.84 1022.17 1022.50 1022.80 1023.06 1023.23 1023.32 1023.31 1023.22 1023.07 1022.88 1022.68 1022.49 1022.31 1022.14
1012.92 1012.71 1012.57 1012.56 1012.71 1013.01 1013.42 1013.90 1014.38 1014.82 1015.17 1015.43 1015.62 1015.78 1015.95 1016.18 1016.48 1016.87 1017.33 1017.82 1018.31 1018.77 1019.19 1019.55 1019.88 1020.18 1020.50 1020.85 1021.23 1021.65 1022.06 1022.46 1022.79 1023.02 1023.15 1023.16 1023.07 1022.90 1022.68 1022.44 1022.21 1022.00 1021.81
Thickness
5723 5724 5723 5720 5718 5716 5714 5712 5710 5708 5707 5705 5704 5703 5702 5701 5700 5699 5698 5698 5698 5698 5698 5697 5697 5697 5696 5696 5695 5695 5695 5694 5694 5694 5695 5696 5696 5696 5696 5696 5696 5697 5698
5728 5724 5722 5719 5717 5714 5712 5710 5707 5705 5703 5702 5700 5699 5698 5696 5695 5694 5694 5693 5692 5692 5692 5691 5690 5690 5689 5689 5688 5688 5687 5687 5686 5686 5686 5686 5688 5688 5688 5688 5689 5689 5689
5727 5723 5721 5718 5715 5713 5710 5707 5705 5702 5700 5698 5696 5695 5694 5692 5691 5690 5689 5688 5687 5686 5685 5684 5683 5683 5682 5682 5681 5680 5680 5679 5678 5678 5678 5679 5679 5681 5681 5681 5681 5681 5681
5726 5722 5720 5717 5714 5711 5708 5705 5702 5699 5697 5694 5693 5691 5690 5688 5687 5685 5684 5682 5681 5680 5679 5678 5677 5676 5676 5675 5674 5673 5673 5672 5671 5671 5671 5671 5672 5673 5674 5674 5674 5674 5674
5724 5721 5718 5715 5712 5708 5705 5702 5699 5696 5694 5691 5689 5687 5685 5684 5682 5680 5679 5677 5676 5674 5673 5672 5671 5670 5669 5668 5668 5667 5665 5664 5663 5663 5663 5664 5664 5666 5666 5666 5666 5666 5667
5722 5719 5716 5713 5709 5706 5703 5699 5696 5693 5690 5688 5685 5683 5681 5679 5677 5675 5673 5671 5670 5669 5667 5666 5665 5664 5663 5662 5661 5660 5659 5657 5657 5657 5656 5657 5657 5658 5659 5659 5659 5659 5660
5721 5717 5714 5711 5707 5704 5700 5697 5693 5690 5687 5684 5681 5679 5677 5674 5672 5670 5668 5666 5665 5663 5662 5660 5659 5658 5657 5656 5655 5653 5652 5651 5650 5650 5649 5650 5650 5651 5652 5652 5652 5652 5653
5720 5716 5712 5709 5706 5702 5698 5694 5691 5687 5684 5681 5678 5675 5672 5670 5667 5665 5663 5661 5659 5658 5656 5655 5654 5652 5651 5650 5648 5647 5646 5645 5644 5643 5643 5643 5643 5644 5645 5645 5645 5645 5646
5717 5713 5710 5707 5704 5700 5696 5692 5688 5685 5681 5678 5675 5671 5668 5666 5663 5661 5658 5656 5654 5653 5651 5650 5648 5647 5645 5644 5643 5641 5640 5638 5637 5637 5636 5636 5637 5638 5638 5638 5638 5639 5639
5714 5711 5708 5705 5702 5698 5693 5690 5686 5682 5678 5675 5671 5668 5665 5662 5659 5656 5654 5651 5649 5647 5646 5644 5642 5641 5639 5638 5636 5635 5633 5632 5631 5630 5630 5630 5630 5631 5632 5632 5632 5632 5632
5711 5709 5706 5703 5699 5695 5691 5687 5683 5679 5675 5672 5668 5664 5661 5658 5654 5651 5649 5646 5644 5642 5640 5638 5637 5635 5633 5632 5630 5629 5628 5626 5625 5624 5624 5623 5624 5625 5625 5625 5625 5624 5624
5710 5707 5704 5701 5697 5693 5689 5685 5680 5676 5672 5669 5665 5661 5657 5654 5650 5647 5644 5642 5639 5637 5635 5633 5631 5629 5627 5626 5624 5623 5622 5620 5619 5618 5618 5617 5617 5618 5618 5618 5617 5617 5617
5713 5708 5704 5700 5696 5691 5687 5682 5678 5674 5670 5665 5661 5657 5653 5650 5646 5643 5640 5637 5635 5632 5629 5627 5625 5623 5621 5620 5618 5617 5615 5614 5613 5612 5611 5611 5611 5611 5611 5611 5610 5609 5609
5711 5708 5704 5699 5694 5689 5685 5680 5676 5671 5667 5663 5659 5654 5650 5646 5642 5638 5635 5632 5629 5627 5624 5622 5619 5617 5615 5614 5612 5611 5609 5608 5607 5606 5605 5604 5604 5604 5603 5603 5602 5602 5601
5710 5707 5703 5698 5692 5687 5682 5678 5673 5669 5665 5660 5656 5651 5647 5642 5638 5634 5631 5627 5624 5621 5619 5616 5613 5611 5609 5608 5606 5605 5603 5602 5601 5599 5598 5597 5596 5596 5595 5595 5594 5593 5593
5710 5707 5703 5697 5692 5686 5681 5676 5672 5667 5662 5657 5653 5649 5644 5640 5635 5631 5626 5623 5620 5617 5614 5611 5608 5605 5603 5601 5600 5598 5597 5595 5594 5593 5591 5589 5588 5587 5586 5586 5585 5584 5583
5712 5708 5702 5697 5691 5685 5680 5675 5670 5665 5659 5654 5650 5646 5641 5637 5632 5627 5623 5619 5615 5612 5609 5605 5602 5600 5597 5595 5593 5591 5590 5589 5587 5585 5583 5582 5580 5578 5577 5576 5575 5574 5573
5711 5707 5702 5697 5691 5685 5679 5673 5668 5662 5657 5652 5647 5643 5638 5634 5629 5624 5619 5615 5611 5607 5604 5600 5597 5593 5590 5588 5586 5584 5583 5581 5580 5578 5576 5574 5572 5570 5568 5566 5565 5563 5562
5711 5707 5701 5696 5691 5685 5678 5672 5666 5660 5655 5650 5644 5640 5635 5630 5626 5621 5616 5612 5607 5602 5598 5595 5591 5587 5584 5581 5579 5577 5575 5574 5572 5570 5568 5566 5564 5561 5559 5556 5554 5553 5552
5710 5706 5701 5695 5690 5683 5675 5668 5661 5656 5651 5647 5642 5637 5632 5628 5623 5618 5612 5608 5603 5598 5593 5589 5585 5581 5577 5574 5572 5570 5567 5566 5564 5562 5560 5557 5555 5552 5550 5547 5545 5543 5541
5707 5703 5699 5693 5688 5680 5672 5665 5659 5653 5649 5644 5640 5635 5630 5625 5620 5614 5609 5604 5599 5594 5589 5584 5579 5575 5570 5567 5563 5561 5560 5558 5556 5553 5551 5548 5546 5543 5540 5538 5535 5533 5531
5706 5702 5698 5693 5687 5681 5675 5668 5660 5654 5648 5643 5637 5632 5627 5622 5617 5611 5606 5600 5595 5590 5584 5579 5574 5568 5564 5560 5555 5551 5549 5549 5548 5546 5542 5539 5537 5534 5531 5528 5526 5524 5521
5703 5701 5697 5692 5686 5680 5673 5664 5655 5648 5642 5637 5632 5628 5624 5619 5614 5609 5603 5598 5592 5586 5580 5575 5570 5564 5558 5552 5548 5544 5539 5539 5536 5537 5534 5531 5528 5525 5522 5519 5517 5514 5512
5701 5698 5695 5689 5683 5677 5670 5662 5655 5649 5643 5639 5634 5628 5622 5616 5611 5606 5600 5594 5589 5583 5577 5572 5566 5560 5554 5547 5540 5536 5533 5529 5524 5525 5525 5522 5519 5516 5513 5510 5507 5505 5502
5697 5693 5690 5685 5679 5673 5667 5661 5654 5649 5644 5637 5630 5624 5618 5612 5607 5602 5596 5591 5585 5579 5574 5568 5562 5555 5550 5544 5537 5530 5523 5518 5514 5511 5513 5512 5509 5507 5504 5501 5498 5495 5492
5691 5687 5684 5680 5675 5669 5664 5658 5652 5647 5640 5632 5626 5620 5614 5609 5603 5598 5592 5587 5582 5576 5570 5564 5558 5552 5545 5539 5533 5527 5520 5513 5507 5501 5500 5500 5498 5498 5495 5492 5488 5484 5481